CAPE
0 0 0 0 0 0 0 0 0 0 0 0 0 0 0 0 0 0 0 0 0 0 0 0 0 0 0 0 0 0 0 0 0 0 0 0 0 0 0 0 0 0 0
0 0 0 0 0 0 0 0 0 0 0 0 0 0 0 0 0 0 0 0 0 0 0 0 0 0 0 0 0 0 0 0 1 0 0 0 0 0 0 0 0 0 0
0 0 0 0 0 0 0 0 0 0 0 0 0 0 0 0 0 0 0 0 0 0 0 0 0 0 0 0 0 0 0 0 0 1 0 0 0 0 0 0 0 0 0
0 0 0 0 0 0 0 0 0 0 0 0 0 0 0 0 0 0 0 0 0 0 0 0 0 0 0 0 0 0 0 0 0 0 0 0 1 0 0 0 0 0 0
0 0 0 0 0 0 0 0 0 0 0 0 0 0 0 0 0 0 0 0 0 0 0 0 0 0 0 0 0 0 0 0 0 0 0 0 0 2 0 0 0 0 0
0 0 0 0 0 0 0 0 0 0 0 0 0 0 0 0 0 0 0 0 0 0 0 0 0 0 0 0 0 0 0 0 0 0 0 0 2 0 0 0 0 0 0
0 0 0 0 0 0 0 0 0 0 0 0 0 0 0 0 0 0 0 0 0 0 0 0 0 0 0 0 0 0 0 0 0 0 0 0 0 0 0 1 1 1 0
0 0 0 0 0 0 0 0 0 0 0 0 0 0 0 0 0 0 0 0 0 0 0 0 0 0 0 0 0 0 0 0 0 0 0 0 0 0 0 2 2 0 0
0 0 0 0 0 0 0 0 0 0 0 0 0 0 0 0 0 0 0 0 0 0 0 0 0 0 0 0 0 0 0 0 0 0 0 0 0 0 0 0 1 1 0
0 0 0 0 0 0 0 0 0 0 0 0 0 0 0 0 0 0 0 0 0 0 0 0 0 0 0 0 0 0 0 0 0 0 0 0 0 0 0 0 1 2 2
0 0 0 0 0 0 0 0 0 0 0 0 0 0 0 0 0 0 0 0 0 0 0 0 0 0 0 0 0 0 0 0 0 0 0 0 0 0 0 0 0 0 0
0 0 0 0 0 0 0 0 0 0 0 0 0 0 0 0 0 0 0 0 0 0 0 0 0 0 0 0 0 0 0 0 0 0 0 0 0 0 0 0 0 0 0
0 0 0 0 0 0 0 0 0 0 0 0 0 0 0 0 0 0 0 0 0 0 0 0 0 0 0 0 0 0 0 0 0 0 0 0 0 0 0 0 0 0 0
0 0 0 0 0 0 0 0 0 0 0 0 0 0 0 0 0 0 0 0 0 0 0 0 0 0 0 0 0 0 0 0 0 0 0 0 0 0 0 0 0 0 0
0 0 0 0 0 0 0 0 0 0 0 0 0 0 0 0 0 0 0 0 0 0 0 0 0 0 0 0 0 0 0 0 0 0 0 0 0 0 0 0 0 0 0
0 0 0 0 0 0 0 0 0 0 0 0 0 0 0 0 0 0 0 0 0 0 0 0 0 0 0 0 0 0 0 0 0 0 0 0 0 0 0 0 0 0 0
0 0 0 0 0 0 0 0 0 0 0 0 0 0 0 0 0 0 0 0 0 0 0 0 0 0 0 0 0 0 0 0 0 0 0 0 0 0 0 0 0 0 0
0 0 0 0 0 0 0 0 0 0 0 0 0 0 0 0 0 0 0 0 0 0 0 0 0 0 0 0 0 0 0 0 0 0 0 0 0 0 0 0 0 0 0
0 0 0 0 0 0 0 0 0 0 0 0 0 0 0 0 0 0 0 0 0 0 0 0 0 0 0 0 0 0 0 0 0 0 0 0 0 0 0 0 0 0 0
0 0 0 0 0 0 0 0 0 0 0 0 0 0 0 0 0 0 0 0 0 0 0 0 0 0 0 0 0 0 0 0 0 0 0 0 0 0 0 0 0 0 0
0 0 0 0 0 0 0 0 0 0 0 0 0 0 0 0 0 0 0 0 0 0 0 0 0 0 0 0 0 0 0 0 0 0 0 0 0 0 0 0 0 0 0
0 0 0 0 0 0 0 0 0 0 0 0 0 0 0 0 0 0 0 0 0 0 0 0 0 0 0 0 0 0 0 0 0 0 0 0 0 0 0 0 0 0 1
0 0 0 0 0 0 0 0 0 0 0 0 0 0 0 0 0 0 0 0 0 0 0 0 0 0 0 0 0 0 0 0 0 0 0 0 0 0 0 0 0 0 0
0 0 0 0 0 0 0 0 0 0 0 0 0 0 0 0 0 0 0 0 0 0 0 0 0 0 0 0 0 0 0 0 0 0 0 0 0 0 0 0 0 0 0
0 0 0 0 0 0 0 0 0 0 0 0 0 0 0 0 0 0 0 0 0 0 0 0 0 0 0 0 0 0 0 0 0 6 4 0 3 1 0 0 0 0 0
0 0 0 0 0 0 0 0 0 0 0 0 0 0 0 0 0 0 0 0 0 0 0 0 0 0 0 0 0 0 0 0 1 5 3 3 0 3 1 2 1 0 0
CIN
-0 -0 -0 -0 -0 -0 -0 -0 -0 -0 -0 -0 -0 -0 -0 -0 -0 -0 -0 -0 -0 -0 -0 -0 -0 -0 -0 -0 -0 -0 -0 -0 -0 -0 -0 -0 -0 -0 -0 -0 -0 -0 -0
-0 -0 -0 -0 -0 -0 -0 -0 -0 -0 -0 -0 -0 -0 -0 -0 -0 -0 -0 -0 -0 -0 -0 -0 -0 -0 -0 -0 -0 -0 -0 -0 -0 -0 -0 -0 -0 -0 -0 -0 -0 -0 -0
-0 -0 -0 -0 -0 -0 -0 -0 -0 -0 -0 -0 -0 -0 -0 -0 -0 -0 -0 -0 -0 -0 -0 -0 -0 -0 -0 -0 -0 -0 -0 -0 -0 -1 -0 -0 -0 -0 -0 -0 -0 -0 -0
-0 -0 -0 -0 -0 -0 -0 -0 -0 -0 -0 -0 -0 -0 -0 -0 -0 -0 -0 -0 -0 -0 -0 -0 -0 -0 -0 -0 -0 -0 -0 -0 -0 -0 -1 -0 -0 -0 -0 -0 -0 -0 -0
-0 -0 -0 -0 -0 -0 -0 -0 -0 -0 -0 -0 -0 -0 -0 -0 -0 -0 -0 -0 -0 -0 -0 -0 -0 -0 -0 -0 -0 -0 -0 -0 -0 -0 -0 -0 -0 -1 -0 -0 -0 -0 -0
-0 -0 -0 -0 -0 -0 -0 -0 -0 -0 -0 -0 -0 -0 -0 -0 -0 -0 -0 -0 -0 -0 -0 -0 -0 -0 -0 -0 -0 -0 -0 -0 -0 -0 -2 -1 -2 -0 -0 -0 -0 -0 -0
-0 -0 -0 -0 -0 -0 -0 -0 -0 -0 -0 -0 -0 -0 -0 -0 -0 -0 -0 -0 -0 -0 -0 -0 -0 -0 -0 -0 -0 -0 -0 -0 -0 -0 -0 -0 -0 -0 -0 -1 -1 -0 -0
-0 -0 -0 -0 -0 -0 -0 -0 -0 -0 -0 -0 -0 -0 -0 -0 -0 -0 -0 -0 -0 -0 -0 -0 -0 -0 -0 -0 -0 -0 -0 -0 -0 -0 -0 -0 -0 -0 -1 -0 -0 -0 -0
-0 -0 -0 -0 -0 -0 -0 -0 -0 -0 -0 -0 -0 -0 -0 -0 -0 -0 -0 -0 -0 -0 -0 -0 -0 -0 -0 -0 -0 -0 -0 -0 -0 -0 -0 -0 -0 -0 -0 -0 -3 -1 -0
-0 -0 -0 -0 -0 -0 -0 -0 -0 -0 -0 -0 -0 -0 -0 -0 -0 -0 -0 -0 -0 -0 -0 -0 -0 -0 -0 -0 -0 -0 -0 -0 -0 -0 -0 -0 -0 -0 -0 -0 -0 -0 -0
-0 -0 -0 -0 -0 -0 -0 -0 -0 -0 -0 -0 -0 -0 -0 -0 -0 -0 -0 -0 -0 -0 -0 -0 -0 -0 -0 -0 -0 -0 -0 -0 -0 -0 -0 -0 -0 -0 -0 -0 -0 -0 -0
-0 -0 -0 -0 -0 -0 -0 -0 -0 -0 -0 -0 -0 -0 -0 -0 -0 -0 -0 -0 -0 -0 -0 -0 -0 -0 -0 -0 -0 -0 -0 -0 -0 -0 -0 -0 -0 -0 -0 -0 -0 -0 -0
-0 -0 -0 -0 -0 -0 -0 -0 -0 -0 -0 -0 -0 -0 -0 -0 -0 -0 -0 -0 -0 -0 -0 -0 -0 -0 -0 -0 -0 -0 -0 -0 -0 -0 -0 -0 -0 -0 -0 -0 -0 -0 -0
-0 -0 -0 -0 -0 -0 -0 -0 -0 -0 -0 -0 -0 -0 -0 -0 -0 -0 -0 -0 -0 -0 -0 -0 -0 -0 -0 -0 -0 -0 -0 -0 -0 -0 -0 -0 -0 -0 -0 -0 -0 -0 -0
-0 -0 -0 -0 -0 -0 -0 -0 -0 -0 -0 -0 -0 -0 -0 -0 -0 -0 -0 -0 -0 -0 -0 -0 -0 -0 -0 -0 -0 -0 -0 -0 -0 -0 -0 -0 -0 -0 -0 -0 -0 -0 -0
-0 -0 -0 -0 -0 -0 -0 -0 -0 -0 -0 -0 -0 -0 -0 -0 -0 -0 -0 -0 -0 -0 -0 -0 -0 -0 -0 -0 -0 -0 -0 -0 -0 -0 -0 -0 -0 -0 -0 -0 -0 -0 -0
-0 -0 -0 -0 -0 -0 -0 -0 -0 -0 -0 -0 -0 -0 -0 -0 -0 -0 -0 -0 -0 -0 -0 -0 -0 -0 -0 -0 -0 -0 -0 -0 -0 -0 -0 -0 -0 -0 -0 -0 -0 -0 -0
-0 -0 -0 -0 -0 -0 -0 -0 -0 -0 -0 -0 -0 -0 -0 -0 -0 -0 -0 -0 -0 -0 -0 -0 -0 -0 -0 -0 -0 -0 -0 -0 -0 -0 -0 -0 -0 -0 -0 -0 -0 -0 -0
-0 -0 -0 -0 -0 -0 -0 -0 -0 -0 -0 -0 -0 -0 -0 -0 -0 -0 -0 -0 -0 -0 -0 -0 -0 -0 -0 -0 -0 -0 -0 -0 -0 -0 -0 -0 -0 -0 -0 -0 -0 -0 -0
-0 -0 -0 -0 -0 -0 -0 -0 -0 -0 -0 -0 -0 -0 -0 -0 -0 -0 -0 -0 -0 -0 -0 -0 -0 -0 -0 -0 -0 -0 -0 -0 -0 -0 -0 -0 -0 -0 -0 -0 -0 -0 -0
-0 -0 -0 -0 -0 -0 -0 -0 -0 -0 -0 -0 -0 -0 -0 -0 -0 -0 -0 -0 -0 -0 -0 -0 -0 -0 -0 -0 -0 -0 -0 -0 -0 -0 -0 -0 -0 -0 -0 -0 -0 -0 -0
-0 -0 -0 -0 -0 -0 -0 -0 -0 -0 -0 -0 -0 -0 -0 -0 -0 -0 -0 -0 -0 -0 -0 -0 -0 -0 -0 -0 -0 -0 -0 -0 -0 -0 -0 -0 -0 -0 -0 -0 -0 -0 -0
-0 -0 -0 -0 -0 -0 -0 -0 -0 -0 -0 -0 -0 -0 -0 -0 -0 -0 -0 -0 -0 -0 -0 -0 -0 -0 -0 -0 -0 -0 -0 -0 -0 -0 -0 -0 -0 -0 -0 -0 -0 -0 -0
-0 -0 -0 -0 -0 -0 -0 -0 -0 -0 -0 -0 -0 -0 -0 -0 -0 -0 -0 -0 -0 -0 -0 -0 -0 -0 -0 -0 -0 -0 -0 -0 -0 -0 -0 -0 -0 -0 -0 -0 -0 -0 -0
-0 -0 -0 -0 -0 -0 -0 -0 -0 -0 -0 -0 -0 -0 -0 -0 -0 -0 -0 -0 -0 -0 -0 -0 -0 -0 -0 -0 -0 -0 -0 -0 -0 -0 -2 -1 -0 -1 -1 -0 -0 -0 -0
-0 -0 -0 -0 -0 -0 -0 -0 -0 -0 -0 -0 -0 -0 -0 -0 -0 -0 -0 -0 -0 -0 -0 -0 -0 -0 -0 -0 -0 -0 -0 -0 -1 -0 -0 -2 -0 -0 -0 -1 -1 -0 -0
Wind_Speed
15 16 18 19 20 19 21 22 22 23 24 26 28 28 27 24 22 21 21 21 21 22 21 19 18 17 16 13 6 10 16 20 22 24 22 20 20 19 19 18 18 18 18
15 16 17 18 19 20 21 21 22 24 25 27 28 27 26 25 24 23 21 20 20 21 21 19 18 15 14 13 12 7 20 21 21 22 23 21 18 18 18 18 18 19 19
15 15 16 18 19 20 20 22 24 25 27 29 29 28 25 23 23 22 20 19 20 21 20 20 18 17 12 12 12 16 24 23 22 21 21 21 21 23 16 19 20 21 20
15 16 17 18 19 20 22 23 25 27 28 30 31 31 30 29 27 25 22 20 19 19 19 19 18 17 15 10 11 13 20 23 23 23 21 23 24 23 23 18 20 21 22
15 15 17 18 20 21 23 24 25 27 29 30 30 30 30 28 27 24 22 20 18 18 18 19 19 18 16 14 11 10 14 21 22 22 23 24 25 22 23 28 25 24 26
14 15 16 18 20 21 22 24 26 29 30 30 31 30 30 29 27 24 23 21 19 18 19 18 19 20 18 17 16 14 11 13 20 20 22 24 23 25 27 29 30 32 29
14 15 16 18 19 21 24 26 28 29 30 30 31 30 29 28 25 24 22 20 18 16 17 19 20 21 20 20 18 19 20 18 17 21 22 22 23 25 27 28 30 32 31
13 14 15 17 19 22 25 27 28 29 29 30 30 30 28 27 25 23 22 19 17 16 16 16 19 19 20 20 20 20 20 20 22 23 22 23 24 24 24 26 29 32 30
12 13 14 17 20 23 26 27 27 28 28 30 29 29 29 28 26 24 22 19 18 17 17 16 15 16 17 18 19 20 21 21 22 22 24 24 24 25 25 25 25 28 32
9 11 14 17 20 23 25 24 24 27 28 28 28 28 28 28 27 25 23 21 20 17 15 15 14 15 15 15 15 18 20 21 22 22 23 24 24 25 25 26 26 26 29
10 12 15 17 20 21 22 22 23 26 27 28 28 28 28 28 27 26 25 23 22 19 18 17 16 16 15 15 15 16 18 20 21 22 23 24 24 25 26 26 26 28 29
12 13 16 20 21 20 20 21 23 25 26 28 28 28 27 27 27 26 25 24 22 20 20 20 19 18 17 18 18 19 20 21 22 23 24 25 25 25 26 27 27 28 29
16 15 17 19 20 19 19 21 23 24 26 27 27 28 27 28 27 26 26 25 24 24 22 22 22 22 21 22 22 22 23 23 23 24 24 25 25 25 25 26 28 29 30
18 17 19 21 21 19 21 23 23 24 25 26 27 27 27 27 27 26 26 25 25 24 24 23 24 24 24 24 24 25 26 26 27 27 27 27 26 26 26 26 27 28 30
17 18 21 22 21 20 23 24 24 24 25 26 27 27 27 27 27 27 26 26 26 25 25 25 25 25 25 25 25 27 28 28 27 28 28 28 27 28 29 30 29 29 31
17 20 20 21 21 24 26 26 25 24 24 26 28 28 27 27 27 27 27 27 27 26 26 27 27 27 26 26 28 28 29 30 30 30 30 31 32 31 31 31 31 31 33
19 20 21 23 26 29 30 29 27 26 27 28 29 29 28 28 28 28 28 28 28 28 28 28 28 28 28 28 29 29 30 31 31 32 33 34 33 33 33 33 33 33 32
19 20 23 26 29 32 33 31 29 28 29 29 30 29 29 29 29 30 30 30 30 30 30 30 29 30 29 29 30 31 31 32 32 32 32 33 33 33 33 34 35 35 34
21 24 27 31 34 37 36 32 31 30 30 30 31 30 30 30 30 30 31 31 32 32 32 31 32 32 33 33 32 32 33 34 34 34 33 32 33 33 33 35 38 38 36
25 30 32 34 37 37 35 33 33 32 32 32 32 31 30 30 31 31 32 33 33 33 33 33 33 34 35 34 33 31 33 36 35 34 34 34 34 36 36 38 40 42 41
32 34 35 38 38 37 35 35 34 34 32 31 31 31 30 31 32 34 34 33 33 33 34 34 34 34 33 33 33 32 33 36 38 38 38 37 36 36 37 39 41 43 42
35 36 37 38 36 35 33 34 33 31 30 31 32 32 32 33 34 34 33 34 34 35 36 36 36 34 35 35 35 35 35 36 40 41 40 40 40 40 41 42 43 43 44
37 36 36 36 34 32 31 33 32 30 30 31 34 35 34 33 32 34 35 36 35 36 37 37 38 39 38 37 37 38 38 38 39 40 42 43 45 45 46 47 46 45 43
37 35 35 34 33 31 31 31 31 30 33 35 35 35 36 36 36 36 36 36 37 37 37 38 40 41 41 41 41 41 41 40 41 42 42 42 42 43 45 45 44 42 41
37 34 33 34 33 32 32 31 32 33 35 37 37 38 38 38 38 37 37 36 36 36 38 39 40 42 44 42 41 43 43 43 43 44 43 43 42 42 41 40 39 38 38
33 33 33 33 33 33 33 32 31 33 36 38 39 38 39 39 40 41 42 38 38 38 37 38 38 40 39 41 42 42 42 42 41 40 39 39 38 38 38 38 38 37 38
Wind_Direction
321 327 331 334 337 343 345 346 349 348 346 341 336 342 343 350 354 356 356 358 1 3 6 13 18 23 27 39 75 237 253 264 280 274 287 291 293 297 300 303 307 311 313
315 322 327 334 339 341 343 346 350 346 341 338 339 343 345 349 350 351 353 356 358 0 4 10 15 27 30 36 48 230 276 275 289 288 279 289 299 299 300 303 305 309 313
311 319 326 331 335 338 340 340 343 341 336 334 338 341 345 348 351 353 356 356 357 357 360 5 13 19 36 41 43 29 322 301 292 303 291 293 293 298 307 302 304 308 314
312 317 323 328 332 334 335 337 339 337 335 333 333 335 337 341 345 347 351 354 355 356 358 1 7 15 24 43 47 37 356 328 315 306 304 292 294 296 297 310 309 311 312
311 315 321 326 329 333 334 338 339 337 333 331 334 336 339 343 345 348 351 354 358 357 358 359 360 6 14 24 37 43 25 339 326 313 311 301 295 301 300 294 304 310 313
312 315 321 326 331 336 339 340 339 334 331 332 335 338 340 342 345 348 350 354 359 1 357 0 358 358 2 8 11 18 31 15 336 327 313 306 305 297 298 296 299 301 308
317 317 322 327 332 336 337 337 334 332 331 333 337 340 343 344 347 348 352 354 360 5 1 355 356 352 352 354 358 355 348 350 353 332 320 316 308 305 304 303 302 302 305
325 324 325 329 332 333 334 333 332 330 332 336 339 343 346 347 347 350 351 356 1 6 8 4 357 356 352 348 349 348 347 342 331 324 326 321 315 312 311 309 305 304 307
333 327 328 328 329 330 330 330 331 333 336 338 342 344 345 345 347 348 351 356 359 1 2 6 8 1 356 352 348 343 340 338 335 331 324 319 317 315 314 313 311 307 304
343 333 328 327 328 329 330 333 335 335 338 342 342 342 343 344 345 348 351 353 356 0 4 6 5 3 1 0 358 351 343 338 335 331 327 323 321 318 316 312 310 308 304
331 330 329 328 328 330 332 333 336 337 338 338 337 337 338 340 341 344 344 350 351 356 358 358 359 359 359 357 355 350 345 340 336 332 327 323 321 318 315 314 311 308 305
325 326 325 326 328 330 332 334 336 337 336 336 336 336 337 337 336 341 343 345 349 353 353 349 350 352 351 348 345 343 340 336 333 330 327 323 322 318 316 313 310 308 306
323 321 324 325 327 329 330 331 332 333 334 336 337 336 335 332 334 339 341 342 343 344 345 344 343 342 341 339 336 334 332 331 330 328 325 322 320 318 317 314 311 309 308
323 323 325 328 329 329 326 327 328 330 330 333 335 336 334 332 333 335 338 339 340 340 340 339 338 336 335 334 332 330 327 325 324 322 321 319 318 316 315 313 311 310 308
319 321 323 325 326 326 325 324 323 325 327 328 331 332 332 331 331 332 333 334 335 335 336 335 334 333 332 332 331 328 324 323 321 320 318 317 315 313 311 310 309 308 306
316 320 322 324 324 322 320 320 318 319 322 323 325 326 327 328 328 328 329 329 331 332 332 331 331 330 330 330 328 326 323 321 319 318 316 314 312 310 308 306 303 301 301
313 315 318 320 320 320 319 317 315 315 316 317 319 321 322 322 323 323 324 325 326 326 326 326 326 325 325 325 325 323 321 319 317 315 313 312 311 309 308 306 305 303 300
310 314 316 318 318 318 317 315 313 312 312 313 315 317 318 318 319 319 320 321 321 322 322 322 322 321 322 321 321 321 319 317 315 314 313 312 311 311 309 307 306 305 304
312 313 315 315 316 316 315 313 311 310 311 311 313 315 315 315 316 316 317 318 319 319 319 319 319 318 318 318 318 318 317 315 313 313 312 311 310 310 308 306 304 303 305
312 312 314 314 315 316 315 312 310 309 307 308 311 313 313 313 314 315 316 316 316 316 317 316 316 315 315 316 316 316 315 312 311 311 311 309 307 306 305 304 302 301 303
309 311 312 311 313 314 314 310 310 309 310 311 312 313 312 312 313 314 314 314 315 315 315 315 315 315 315 315 315 315 313 311 309 308 307 307 306 304 303 302 300 299 301
309 310 311 312 315 316 315 313 311 314 313 313 312 312 311 312 312 312 313 314 313 313 313 313 313 314 315 315 314 313 312 310 307 305 304 303 302 301 300 300 299 299 298
308 310 311 312 314 316 316 313 314 315 315 314 312 311 312 312 312 311 311 311 311 311 311 311 312 312 314 314 314 313 311 309 307 305 303 302 300 299 299 298 297 297 296
308 309 310 311 312 315 316 315 316 317 314 313 312 312 311 311 310 309 309 309 309 310 310 310 311 312 313 313 314 313 313 311 308 306 304 303 301 300 299 298 298 296 295
308 309 310 311 312 314 316 318 318 317 314 313 313 312 311 310 310 309 308 307 307 308 308 309 310 311 310 312 312 313 312 311 309 307 306 304 303 302 301 300 299 298 297
309 310 310 311 313 314 316 320 321 319 316 314 314 313 312 311 310 309 308 308 306 306 306 306 307 309 309 311 313 313 312 312 312 310 307 305 304 303 303 302 301 301 300